[[{"header":{"parameterUnit":"m.s-1","parameterCategory":1,"la1":30.2991,"la2":30.254,"lo1":-89.0895,"lo2":-89.0444,"dy":0.0017,"dx":0.0017,"nx":28,"ny":28,"refTime":"2024-07-01T03:00:00:Z","depth":0,"parameterNumber":2,"parameterNumberName":"U-component_of_WINDS"},"data":[0,0,0,0,0,0,0,0,0,0,0,0,0,0,0,0,0,0,0,0,0,0,0,0,0,0,0,0,0,0,0,0,0,0,0,0,0,0,0,0,0,0,0,0,0,0,0,0,0,0,0,0,0,0,0,0,0,0,-1.0161,-1.016,0,-1.0058,-1.0057,-1.0056,-1.0026,-1.0026,-1.0027,-1.0027,-0.9919,-0.9916,-0.9912,0,0,0,0,0,0,0,0,0,0,0,0,0,-1.033,-1.0327,-1.0162,-1.016,-1.0159,-1.0058,-1.0057,-1.0055,-1.0026,-1.0026,-1.0027,-1.0028,-0.992,-0.9916,-0.9912,0,0,0,0,0,0,0,0,0,0,0,0,0,-1.0244,-1.0326,-1.0162,-1.0132,-1.0128,-1.0058,-1.0057,-1.0055,-1.0025,-1.0026,-1.0027,-1.0028,-0.9921,-0.9916,-0.9911,-0.9863,0,0,-0.9896,-0.9893,0,0,0,0,0,0,0,0,-1.0249,-1.0238,-1.0138,-1.0134,-1.013,-1.0056,-1.0076,-0.999,-1.0025,-1.0064,-1.0027,-1.0028,-0.9964,-0.9955,-0.9934,-0.9858,-0.9853,-0.9895,-0.9892,-0.989,-0.9888,0,0,0,0,0,0,0,-1.0255,-1.0243,-1.012,-1.0136,-1.0131,-1.0123,-1.0111,-1.006,-1.001,-1.0061,-1.0059,-1.0047,-0.9961,-0.9939,-0.9931,-0.9851,-0.9895,-0.9891,-0.9888,-0.9886,-0.9729,-0.9728,0,0,0,0,0,0,-1.0267,-1.0248,-1.0124,-1.0117,-1.0193,-1.0119,-1.0106,-1.0079,-1.0011,-1.0001,-1.0046,-1.0046,-0.9947,-0.9937,-0.9927,-0.9865,-0.989,-0.9885,-0.9882,-0.973,-0.9729,-0.9727,0,0,0,0,0,0,-1.027,-1.0256,-1.0128,-1.0182,-1.0165,-1.0115,-1.0084,-1.0076,-1.0053,-1.0,-0.9991,-1.0032,-0.9947,-0.9934,-0.9879,-0.9861,-0.9883,-0.9878,-0.9731,-0.973,-0.9728,-0.9741,0,0,0,0,0,0,-1.0275,-1.0258,-1.024,-1.0182,-1.0162,-1.0083,-1.0083,-1.0073,-1.0045,-1.0043,-0.9984,-0.9975,-0.9947,-0.9887,-0.9874,-0.9854,-0.9874,-0.9733,-0.973,-0.9729,-0.9742,-0.974,-0.9739,0,0,0,0,0,-1.0282,-1.0247,-1.0239,-1.0224,-1.0139,-1.0082,-1.007,-1.0039,-1.0044,-1.0024,-0.999,-0.9977,-0.9865,-0.9881,-0.9866,-0.9845,-0.9734,-0.9731,-0.9729,-0.9743,-0.9741,-0.9739,0,0,0,0,0,0,-1.0303,-1.0239,-1.0229,-1.0175,-1.0134,-1.0077,-1.0052,-1.0038,-0.9994,-0.9995,-0.9957,-0.9944,-0.9891,-0.9862,-0.9882,-0.9794,-0.9799,-0.9793,-0.9815,-0.9812,-0.981,-0.9818,-0.987,0,0,0,0,0,-1.0302,-1.0262,-1.0208,-1.0165,-1.0145,-1.0102,-1.0076,-1.0055,-1.0011,-0.9994,-0.9955,-0.9912,-0.9866,-0.9838,-0.9793,-0.9738,-0.9724,-0.9715,-0.9714,-0.9713,-0.9708,-0.9676,-0.9671,-0.9719,-0.9719,-0.9719,0,0,-1.0299,-1.0258,-1.0236,-1.0168,-1.0134,-1.0093,-1.0088,-1.0044,-1.0012,-0.9987,-0.9932,-0.9902,-0.9851,-0.9796,-0.9769,-0.977,-0.9692,-0.9709,-0.9709,-0.9705,-0.9673,-0.9668,-0.9664,-0.9718,-0.9718,-0.9718,0,0,-1.0271,-1.0237,-1.0198,-1.0164,-1.0112,-1.0084,-1.0074,-1.0018,-0.9998,-0.9943,-0.9922,-0.9883,-0.9806,-0.9771,-0.9743,-0.97,-0.9687,-0.9687,-0.9677,-0.9646,-0.9642,-0.9639,-0.9623,-0.9618,-0.9682,-0.9683,-0.9683,0,-1.0273,-1.0211,-1.0179,-1.0136,-1.0107,-1.0082,-1.0041,-1.0009,-0.9945,-0.9925,-0.9927,-0.983,-0.9794,-0.9729,-0.9718,-0.9696,-0.9684,-0.9694,-0.9646,-0.9642,-0.9638,-0.9623,-0.9617,-0.9683,-0.9683,-0.9683,-0.9683,0,-1.0216,-1.0173,-1.0147,-1.0087,-1.0054,-1.0012,-0.9973,-0.9944,-0.9925,-0.9896,-0.984,-0.9795,-0.9741,-0.9724,-0.9706,-0.9656,-0.9658,-0.9653,-0.9658,-0.9634,-0.9619,-0.9613,-0.9683,-0.9683,-0.9683,-0.9683,0,0,-1.02,-1.0122,-1.0113,-1.0085,-1.0026,-0.9992,-0.9948,-0.9896,-0.9871,-0.9827,-0.9789,-0.9724,-0.9719,-0.9687,-0.9664,-0.9637,-0.9606,-0.9635,-0.9634,-0.9631,-0.9547,-0.9551,-0.9545,-0.9596,-0.9595,-0.9594,-0.9551,0,-1.0165,-1.0088,-1.0057,-0.9994,-0.9953,-0.9928,-0.989,-0.9849,-0.982,-0.978,-0.9747,-0.9702,-0.9699,-0.9679,-0.9651,-0.9616,-0.9588,-0.9618,-0.9559,-0.9558,-0.9573,-0.9537,-0.9542,-0.9504,-0.9545,-0.9544,-0.9544,0,-1.0115,-1.0071,-1.0004,-0.9949,-0.9931,-0.9897,-0.9846,-0.9809,-0.9761,-0.9741,-0.9705,-0.9684,-0.9636,-0.9643,-0.9576,-0.9597,-0.9571,-0.9549,-0.9547,-0.954,-0.955,-0.953,-0.9491,-0.9486,-0.9534,-0.9535,-0.9535,0,-1.011,-1.0034,-0.9984,-0.9961,-0.9896,-0.9873,-0.9844,-0.9797,-0.9767,-0.9722,-0.9702,-0.9651,-0.9624,-0.9585,-0.955,-0.9558,-0.9485,-0.949,-0.9467,-0.9468,-0.9453,-0.9455,-0.941,-0.9437,-0.9437,-0.9437,-0.9437,0,-1.0074,-1.0034,-0.9981,-0.9951,-0.9904,-0.9868,-0.9823,-0.9793,-0.9751,-0.9713,-0.9687,-0.9652,-0.9608,-0.9566,-0.9538,-0.9486,-0.9474,-0.9456,-0.9449,-0.9459,-0.9461,-0.9441,-0.9443,-0.9435,-0.9436,-0.9436,-0.9436,0,-1.0062,-1.0025,-0.9968,-0.9911,-0.9895,-0.9864,-0.9814,-0.9782,-0.9752,-0.9704,-0.969,-0.9642,-0.9592,-0.9553,-0.9487,-0.9468,-0.9413,-0.9406,-0.943,-0.9426,-0.9406,-0.9409,-0.9347,-0.9337,-0.9371,-0.937,-0.937,0,-1.0042,-1.001,-0.9949,-0.9922,-0.9894,-0.9851,-0.982,-0.9783,-0.9752,-0.9694,-0.967,-0.9617,-0.9574,-0.9494,-0.9453,-0.9402,-0.9393,-0.9375,-0.9385,-0.9395,-0.9392,-0.9395,-0.9391,-0.9374,-0.9374,-0.9374,-0.9373,0,-1.001,-0.9993,-0.995,-0.9901,-0.9865,-0.9824,-0.9783,-0.9762,-0.9717,-0.9683,-0.9631,-0.9597,-0.953,-0.9478,-0.9423,-0.9392,-0.9375,-0.937,-0.9362,-0.9372,-0.9387,-0.9378,-0.9426,-0.9372,-0.9372,-0.9372,-0.9372,-0.9372,-0.9992,-0.9963,-0.9916,-0.9869,-0.9833,-0.9795,-0.9762,-0.9728,-0.9684,-0.9628,-0.9608,-0.9554,-0.9506,-0.943,-0.9398,-0.9355,-0.9354,-0.9343,-0.934,-0.9338,-0.9339,-0.9394,-0.9345,-0.9345,-0.9345,-0.9345,-0.9345,0,-0.9959,-0.9927,-0.9884,-0.9827,-0.979,-0.9777,-0.973,-0.97,-0.9653,-0.961,-0.9567,-0.9508,-0.9457,-0.9411,-0.9358,-0.9332,-0.9323,-0.9319,-0.9321,-0.9314,-0.9343,-0.9355,-0.9328,-0.9328,-0.9328,-0.9328,-0.9328,-0.9328,-0.9938,-0.9887,-0.9864,-0.9796,-0.9763,-0.9712,-0.9686,-0.965,-0.9615,-0.9549,-0.9507,-0.9478,-0.9433,-0.9376,-0.9328,-0.9316,-0.9298,-0.9296,-0.9282,-0.931,-0.9312,-0.9314,-0.9325,-0.9293,-0.9293,-0.9257,-0.9256,-0.9256]},{"header":{"parameterUnit":"m.s-1","parameterCategory":1,"la1":30.2991,"la2":30.254,"lo1":-89.0895,"lo2":-89.0444,"dy":0.0017,"dx":0.0017,"nx":28,"ny":28,"refTime":"2024-07-01T03:00:00:Z","depth":0,"parameterNumber":3,"parameterNumberName":"V-component_of_WINDS"},"data":[0,0,0,0,0,0,0,0,0,0,0,0,0,0,0,0,0,0,0,0,0,0,0,0,0,0,0,0,0,0,0,0,0,0,0,0,0,0,0,0,0,0,0,0,0,0,0,0,0,0,0,0,0,0,0,0,0,0,-1.0967,-1.0967,0,-1.0899,-1.0898,-1.0897,-1.0934,-1.0936,-1.0938,-1.094,-1.0869,-1.0865,-1.0862,0,0,0,0,0,0,0,0,0,0,0,0,0,-1.1133,-1.113,-1.0967,-1.0967,-1.0966,-1.0899,-1.0898,-1.0897,-1.0934,-1.0936,-1.0939,-1.0941,-1.087,-1.0866,-1.0861,0,0,0,0,0,0,0,0,0,0,0,0,0,-1.1062,-1.1129,-1.0968,-1.0976,-1.0976,-1.0899,-1.0898,-1.0897,-1.0934,-1.0937,-1.0939,-1.0942,-1.0872,-1.0866,-1.0861,-1.0771,0,0,-1.0844,-1.0842,0,0,0,0,0,0,0,0,-1.1066,-1.1056,-1.0976,-1.0976,-1.0976,-1.0928,-1.093,-1.0855,-1.0933,-1.095,-1.094,-1.0943,-1.0886,-1.088,-1.0861,-1.0768,-1.0764,-1.0844,-1.084,-1.0838,-1.0836,0,0,0,0,0,0,0,-1.1071,-1.1059,-1.094,-1.0975,-1.0974,-1.0984,-1.0977,-1.0916,-1.0903,-1.0949,-1.0951,-1.0943,-1.0887,-1.0866,-1.0859,-1.0763,-1.0844,-1.0839,-1.0836,-1.0833,-1.0599,-1.0596,0,0,0,0,0,0,-1.1075,-1.1063,-1.0942,-1.0938,-1.1029,-1.0979,-1.0971,-1.094,-1.0904,-1.0901,-1.094,-1.0945,-1.0874,-1.0866,-1.0857,-1.0753,-1.0838,-1.0833,-1.083,-1.0601,-1.0598,-1.0595,0,0,0,0,0,0,-1.1079,-1.1064,-1.0945,-1.1001,-1.0987,-1.0973,-1.0938,-1.0938,-1.0917,-1.0898,-1.0896,-1.0921,-1.0876,-1.0865,-1.0793,-1.0751,-1.0831,-1.0826,-1.0605,-1.06,-1.0596,-1.0542,0,0,0,0,0,0,-1.1083,-1.1065,-1.103,-1.1,-1.0984,-1.0882,-1.0936,-1.0934,-1.0907,-1.0912,-1.0879,-1.0876,-1.0877,-1.0801,-1.0788,-1.0745,-1.0821,-1.0609,-1.0603,-1.0598,-1.0547,-1.0536,-1.0526,0,0,0,0,0,-1.1089,-1.1016,-1.1028,-1.1013,-1.094,-1.0879,-1.087,-1.0872,-1.0904,-1.0869,-1.0858,-1.0877,-1.0757,-1.0794,-1.0779,-1.0733,-1.0611,-1.0605,-1.0598,-1.0552,-1.0538,-1.0526,0,0,0,0,0,0,-1.1039,-1.1012,-1.1025,-1.094,-1.0912,-1.0885,-1.0841,-1.0857,-1.0818,-1.0825,-1.0829,-1.0822,-1.0748,-1.0733,-1.0774,-1.0647,-1.069,-1.068,-1.0659,-1.0646,-1.0636,-1.0642,-1.0817,0,0,0,0,0,-1.1019,-1.0972,-1.095,-1.0878,-1.0863,-1.0855,-1.0828,-1.0833,-1.0804,-1.0792,-1.0775,-1.0746,-1.0702,-1.0673,-1.0631,-1.0545,-1.0541,-1.0507,-1.0497,-1.0488,-1.048,-1.0438,-1.0424,-1.0573,-1.0573,-1.0573,0,0,-1.0975,-1.0954,-1.0924,-1.0867,-1.0846,-1.0799,-1.0844,-1.0791,-1.0756,-1.0784,-1.0716,-1.0703,-1.0671,-1.0593,-1.0558,-1.0579,-1.0438,-1.0479,-1.0473,-1.0469,-1.0429,-1.0415,-1.0403,-1.0568,-1.0569,-1.057,0,0,-1.0872,-1.085,-1.079,-1.0768,-1.0736,-1.0732,-1.0718,-1.069,-1.0683,-1.0615,-1.0636,-1.0595,-1.0519,-1.0497,-1.0475,-1.0369,-1.0387,-1.0355,-1.0301,-1.0259,-1.0248,-1.0237,-1.0203,-1.019,-1.0347,-1.0347,-1.0347,0,-1.0822,-1.0751,-1.0756,-1.0703,-1.0679,-1.0703,-1.0643,-1.0622,-1.0577,-1.0561,-1.0584,-1.0492,-1.0472,-1.0392,-1.0366,-1.0347,-1.0333,-1.0359,-1.0249,-1.0239,-1.0229,-1.0196,-1.0183,-1.0343,-1.0344,-1.0344,-1.0344,0,-1.0693,-1.0644,-1.0598,-1.0558,-1.0528,-1.0471,-1.0469,-1.0439,-1.0447,-1.0441,-1.0375,-1.0352,-1.0308,-1.0289,-1.0295,-1.0211,-1.0225,-1.0249,-1.0292,-1.0211,-1.0181,-1.0168,-1.0338,-1.0339,-1.0341,-1.0341,0,0,-1.0554,-1.052,-1.0504,-1.0488,-1.0456,-1.0419,-1.0364,-1.0323,-1.0299,-1.0268,-1.0225,-1.0161,-1.0185,-1.016,-1.0165,-1.0128,-1.0051,-1.0157,-1.0157,-1.0141,-0.996,-0.9944,-0.9929,-1.0062,-1.006,-1.0058,-0.9964,0,-1.0452,-1.0358,-1.0363,-1.0275,-1.0232,-1.0257,-1.021,-1.0187,-1.018,-1.0144,-1.0136,-1.0093,-1.0125,-1.0111,-1.0076,-1.0067,-1.0015,-1.0074,-1.0024,-1.0022,-1.0033,-0.9913,-0.9895,-0.9807,-0.9951,-0.9949,-0.9948,0,-1.0319,-1.0287,-1.0195,-1.0175,-1.0157,-1.0115,-1.008,-1.0044,-1.0019,-1.0017,-0.9992,-1.0004,-0.9952,-0.9996,-0.9925,-0.9965,-0.9945,-0.9938,-0.9935,-0.9932,-0.9981,-0.9909,-0.9778,-0.9766,-0.9928,-0.993,-0.9931,0,-1.0232,-1.0165,-1.0103,-1.0088,-1.0061,-1.0032,-1.002,-0.9998,-0.9974,-0.9943,-0.9929,-0.9891,-0.9871,-0.9843,-0.9846,-0.9877,-0.9776,-0.9819,-0.9775,-0.9775,-0.9753,-0.9755,-0.962,-0.9736,-0.9736,-0.9736,-0.9737,0,-1.0118,-1.0062,-1.0065,-1.0026,-0.9966,-0.9973,-0.9913,-0.9903,-0.9884,-0.9846,-0.9864,-0.9828,-0.9833,-0.9797,-0.9799,-0.9742,-0.9732,-0.9731,-0.9733,-0.9731,-0.9731,-0.9719,-0.9726,-0.9733,-0.9734,-0.9734,-0.9735,0,-1.001,-1.0009,-0.9944,-0.9926,-0.992,-0.9876,-0.9861,-0.9826,-0.9822,-0.9774,-0.9764,-0.9758,-0.9717,-0.9717,-0.967,-0.9671,-0.9603,-0.961,-0.9612,-0.9614,-0.9572,-0.9577,-0.9426,-0.9408,-0.9533,-0.9532,-0.9531,0,-0.9938,-0.9896,-0.9875,-0.9852,-0.9838,-0.9799,-0.9776,-0.9783,-0.9758,-0.9729,-0.9699,-0.966,-0.963,-0.9564,-0.9556,-0.9522,-0.953,-0.9479,-0.9524,-0.9525,-0.9533,-0.9536,-0.9534,-0.9471,-0.947,-0.9468,-0.9467,0,-0.9813,-0.9816,-0.9782,-0.9749,-0.9722,-0.9696,-0.9672,-0.9652,-0.9656,-0.9628,-0.9588,-0.9564,-0.9518,-0.9481,-0.9448,-0.9437,-0.9454,-0.9454,-0.9442,-0.9441,-0.9445,-0.9446,-0.9591,-0.9457,-0.9458,-0.9459,-0.9459,-0.946,-0.9723,-0.9689,-0.9669,-0.9633,-0.9616,-0.9595,-0.9562,-0.9556,-0.9523,-0.9487,-0.9493,-0.9449,-0.9429,-0.9387,-0.9373,-0.9339,-0.9357,-0.9339,-0.9335,-0.9332,-0.9329,-0.9449,-0.9333,-0.9333,-0.9333,-0.9334,-0.9334,0,-0.9601,-0.9591,-0.9557,-0.9525,-0.9497,-0.9516,-0.9492,-0.9468,-0.9429,-0.9409,-0.938,-0.9336,-0.9301,-0.9292,-0.9258,-0.9234,-0.9241,-0.9225,-0.9228,-0.9226,-0.9313,-0.9328,-0.922,-0.922,-0.922,-0.922,-0.922,-0.922,-0.9534,-0.9479,-0.948,-0.9418,-0.9408,-0.9366,-0.9352,-0.9333,-0.9318,-0.9268,-0.924,-0.9234,-0.922,-0.9186,-0.9156,-0.9154,-0.9143,-0.9124,-0.9126,-0.9208,-0.9219,-0.923,-0.9244,-0.9121,-0.912,-0.9042,-0.9041,-0.904]}]]